Tracking 18945 objects as of 19-Jan-2018
HD Live streaming from Space Station
objects crossing your sky now

SCOUT A R/B

Track SCOUT A R/B now!
10-day predictions


NORAD ID: 2180
Int'l Code: 1966-041B
Perigee: 844.9 km
Apogee: 956.7 km
Inclination: 90.1 °
Period: 102.9 minutes
Semi major axis: 7271 km
RCS: 0.6901 m2 (medium)
Launch date: May 19, 1966
Source: United States (US)
Launch site: AIR FORCE WESTERN TEST RANGE (AFWTR)

Note: This is a ROCKET BODY
aabbcc
Your satellite tracking list
Your tracking list is empty




NASA's NSSDC Master Catalog

Two Line Element Set (TLE):
1 02180U 66041B   18019.11708904  .00000057  00000-0  31552-4 0  9999
2 02180  90.1445  19.7658 0076900 267.3176  91.9199 14.00037131633938
Source of the keplerian elements: AFSPC